Simultaneous Nadir Overpasses (SNOs) Predictions

Prediction of SNOs between GOES-15 and TERRA Satellite Orbit:

Table of predicted SNOs for the next 14.0 days since TLE Epoch: 10/14/2012
Index Date Time (GOES-15) GOES-15 Lat,Lon TERRA Lat,Lon Distance(km) Time Diff (sec)
1 10/14/2012 19:15:02 -0.34,-135.38 -1.23,-131.21 474.59 80
2 10/15/2012 07:36:26 0.33,-135.38 0.14,-136.41 116.41 80
3 10/17/2012 07:21:38 0.33,-135.35 0.76,-133.46 215.45 80
4 10/17/2012 19:42:54 -0.32,-135.34 0.38,-138.61 372.51 80
5 10/19/2012 19:30:48 -0.32,-135.31 -0.25,-135.68 42.34 80
6 10/21/2012 19:21:23 -0.32,-135.27 -0.84,-132.74 286.68 80
7 10/22/2012 07:42:49 0.30,-135.26 -0.27,-137.94 304.44 80
8 10/24/2012 07:28:06 0.30,-135.22 0.34,-135.02 23.33 80
9 10/26/2012 07:16:05
